призрачный форум

www.prizrak.ws

Информация о пользователе

Привет, Гость! Войдите или зарегистрируйтесь.


Вы здесь » www.prizrak.ws » Software, ОС, программное обеспечение..


Software, ОС, программное обеспечение..

Тем 3201 страница 3250 из 131835

Тема Ответов Просмотров Последнее сообщение
3201 Safer TRACE v10.2  Xue Wang
0 0 2020-06-24 14:16:29  Xue Wang
0 0 2020-06-24 14:14:24  Xue Wang
0 0 2020-06-24 14:12:43  Xue Wang
0 0 2020-06-24 13:57:45  Xue Wang
3205 SVI.Pro.v2.1  Xue Wang
0 0 2020-06-24 13:57:20  Xue Wang
0 4 2020-06-24 13:53:43  Xue Wang
0 0 2020-06-24 13:39:38  Xue Wang
3208 STS WINROAD 2018  Xue Wang
0 0 2020-06-24 13:38:53  Xue Wang
3209 Cadence MMSIM v15.10.385  Xue Wang
0 0 2020-06-24 13:35:42  Xue Wang
0 1 2020-06-24 13:20:52  Xue Wang
3211 STATA v14.2  Xue Wang
0 0 2020-06-24 13:20:14  Xue Wang
3212 Cadence MDV 18.03 Linux  Xue Wang
0 0 2020-06-24 13:17:52  Xue Wang
3213 KEILMDK-ARMv5.3  Xue Wang
0 0 2020-06-24 13:02:08  Xue Wang
3214 STAB WELL v4.4  Xue Wang
0 0 2020-06-24 13:01:45  Xue Wang
3215 Cadaplus APLUS v18.034  Xue Wang
0 0 2020-06-24 12:59:24  Xue Wang
0 0 2020-06-24 12:43:48  Xue Wang
0 0 2020-06-24 12:42:40  Xue Wang
3218 CadLink SignLab v10.0  Xue Wang
0 0 2020-06-24 12:40:41  Xue Wang
3219 JewelSuite v2019.3  Xue Wang
0 0 2020-06-24 12:24:23  Xue Wang
3220 SPT wellflo v8.3  Xue Wang
0 0 2020-06-24 12:24:07  Xue Wang
3221 CablEquity v2013  Xue Wang
0 0 2020-06-24 12:22:02  Xue Wang
3222 JewelSuite v2018.1  Xue Wang
0 0 2020-06-24 12:06:02  Xue Wang
3223 SPSQC v7.5  Xue Wang
0 0 2020-06-24 12:04:46  Xue Wang
3224 CYMGRD v6.51  Xue Wang
0 0 2020-06-24 12:02:02  Xue Wang
0 0 2020-06-24 11:46:51  Xue Wang
3226 SPEOS v2018.1.0 x64  Xue Wang
0 0 2020-06-24 11:44:33  Xue Wang
3227 CYMCAP 7.2  Xue Wang
0 0 2020-06-24 11:41:47  Xue Wang
3228 JMAG-Designer v18.1 x64  Xue Wang
0 0 2020-06-24 11:27:31  Xue Wang
0 0 2020-06-24 11:25:42  Xue Wang
3230 CX Supervisor v3.24  Xue Wang
0 0 2020-06-24 11:23:06  Xue Wang
3231 JETCAM EXPERT V15.6  Xue Wang
0 0 2020-06-24 11:07:50  Xue Wang
0 0 2020-06-24 11:06:06  Xue Wang
0 0 2020-06-24 11:03:35  Xue Wang
0 0 2020-06-24 10:49:32  Xue Wang
3235 SPACE-E.v5.4  Xue Wang
0 0 2020-06-24 10:47:17  Xue Wang
3236 CUP Tower.V2.0  Xue Wang
0 0 2020-06-24 10:43:39  Xue Wang
0 0 2020-06-24 10:31:08  Xue Wang
3238 SOFTWARE ENGINEERING  Xue Wang
0 0 2020-06-24 10:27:49  Xue Wang
3239 CRYSTAL v2018.3  Xue Wang
0 0 2020-06-24 10:23:08  Xue Wang
0 2 2020-06-24 10:22:24  oaxino
0 2 2020-06-24 10:21:06  oaxino
0 2 2020-06-24 10:19:46  oaxino
0 2 2020-06-24 10:18:14  oaxino
0 1 2020-06-24 10:16:41  oaxino
0 1 2020-06-24 10:15:04  oaxino
0 1 2020-06-24 10:13:59  oaxino
0 2 2020-06-24 10:12:23  oaxino
3248 IvySoft.Pipemill.v4.0  Xue Wang
0 0 2020-06-24 10:11:34  Xue Wang
0 2 2020-06-24 10:11:12  oaxino
0 2 2020-06-24 10:09:40  oaxino

Вы здесь » www.prizrak.ws » Software, ОС, программное обеспечение..